When you browse on this site, cookies collect data to enhance your experience and personalize the content and advertising you see.
Visit our Privacy Policy to learn more. By continuing to use the site, you agree to this use of cookies and data.
  • In Czech Republic
  • List of Countries
  • For 7 days
  • Water Temperature
  • Satellite Maps
  • Weather Map
  • Weather Widgets
  • user-avatar
    Login

    Hourly Weather Brisbane

    Today, 20 November, Tuesday

    Time Temperature Precipitation Wind Pressure Humidity
    00:00 +19°C° 0 mm 1 mps 761 mmHg 78%
    01:00 +19°C° 0 mm 1 mps 761 mmHg 79%
    02:00 +19°C° 0 mm 1 mps 761 mmHg 80%
    03:00 +18°C° 0 mm 1 mps 761 mmHg 81%
    04:00 +18°C° 0 mm 1 mps 760 mmHg 82%
    05:00 +20°C° 0 mm 1 mps 761 mmHg 75%
    06:00 +22°C° 0 mm 1 mps 761 mmHg 67%
    07:00 +22°C° 0 mm 0 mps 761 mmHg 60%
    08:00 +26°C° 0 mm 1 mps 761 mmHg 53%
    09:00 +27°C° 0 mm 1 mps 760 mmHg 47%
    10:00 +29°C° 0 mm 2 mps 760 mmHg 40%
    11:00 +30°C° 0 mm 3 mps 759 mmHg 39%
    12:00 +31°C° 0 mm 3 mps 759 mmHg 37%
    13:00 +33°C° 0 mm 4 mps 758 mmHg 36%
    14:00 +32°C° 0 mm 4 mps 757 mmHg 39%
    15:00 +30°C° 0 mm 5 mps 757 mmHg 43%
    16:00 +28°C° 0 mm 5 mps 756 mmHg 47%
    17:00 +27°C° 0 mm 5 mps 756 mmHg 53%
    18:00 +25°C° 0 mm 5 mps 757 mmHg 59%
    19:00 +23°C° 0 mm 5 mps 757 mmHg 65%
    20:00 +22°C° 0 mm 5 mps 757 mmHg 67%
    21:00 +22°C° 0 mm 5 mps 757 mmHg 69%
    22:00 +21°C° 0 mm 5 mps 758 mmHg 72%
    23:00 +21°C° 0 mm 4 mps 757 mmHg 73%

    Tomorrow, 21 November, Wednesday

    Time Temperature Precipitation Wind Pressure Humidity
    00:00 +21°C° 0 mm 4 mps 757 mmHg 74%
    01:00 +21°C° 0 mm 4 mps 757 mmHg 75%
    02:00 +21°C° 0 mm 4 mps 756 mmHg 75%
    03:00 +21°C° 0 mm 5 mps 756 mmHg 75%
    04:00 +21°C° 0 mm 5 mps 755 mmHg 74%
    05:00 +22°C° 0 mm 5 mps 756 mmHg 70%
    06:00 +23°C° 0 mm 5 mps 756 mmHg 66%
    07:00 +26°C° 0 mm 6 mps 756 mmHg 62%
    08:00 +28°C° 0 mm 6 mps 756 mmHg 55%
    09:00 +30°C° 0 mm 6 mps 756 mmHg 48%
    10:00 +34°C° 0 mm 6 mps 755 mmHg 42%
    11:00 +35°C° 0 mm 6 mps 755 mmHg 39%
    12:00 +36°C° 0 mm 6 mps 754 mmHg 37%
    13:00 +38°C° 0 mm 6 mps 753 mmHg 34%
    14:00 +36°C° 0.1 mm 6 mps 752 mmHg 40%
    15:00 +34°C° 0.1 mm 6 mps 752 mmHg 46%
    16:00 +32°C° 0.1 mm 5 mps 751 mmHg 52%
    17:00 +32°C° 0.1 mm 5 mps 752 mmHg 56%
    18:00 +30°C° 0.1 mm 6 mps 752 mmHg 60%
    19:00 +29°C° 0.1 mm 6 mps 753 mmHg 64%
    20:00 +28°C° 0.9 mm 5 mps 753 mmHg 71%
    21:00 +26°C° 0.9 mm 4 mps 754 mmHg 79%
    22:00 +25°C° 0.9 mm 3 mps 755 mmHg 87%
    23:00 +25°C° 1.5 mm 3 mps 754 mmHg 89%

    Day after tomorrow, 22 November, Thursday

    Time Temperature Precipitation Wind Pressure Humidity
    00:00 +25°C° 1.5 mm 3 mps 754 mmHg 90%
    01:00 +24°C° 1.5 mm 3 mps 753 mmHg 92%
    02:00 +24°C° 0.4 mm 3 mps 753 mmHg 92%
    03:00 +24°C° 0.4 mm 3 mps 753 mmHg 92%
    04:00 +24°C° 0.4 mm 3 mps 753 mmHg 92%
    05:00 +23°C° 0.3 mm 4 mps 753 mmHg 90%
    06:00 +25°C° 0.3 mm 4 mps 753 mmHg 89%
    07:00 +25°C° 0.3 mm 5 mps 754 mmHg 87%
    08:00 +26°C° 0.4 mm 5 mps 754 mmHg 82%
    09:00 +27°C° 0.4 mm 5 mps 753 mmHg 78%
    10:00 +28°C° 0.4 mm 6 mps 753 mmHg 73%
    11:00 +29°C° 0.3 mm 6 mps 753 mmHg 69%
    12:00 +29°C° 0.3 mm 6 mps 753 mmHg 65%
    13:00 +30°C° 0.3 mm 6 mps 752 mmHg 61%
    14:00 +30°C° 0.7 mm 6 mps 752 mmHg 63%
    15:00 +29°C° 0.7 mm 6 mps 752 mmHg 64%
    16:00 +29°C° 0.7 mm 6 mps 751 mmHg 65%
    17:00 +28°C° 0.2 mm 5 mps 752 mmHg 66%
    18:00 +27°C° 0.2 mm 4 mps 752 mmHg 68%
    19:00 +25°C° 0.2 mm 3 mps 753 mmHg 69%
    20:00 +24°C° 0 mm 3 mps 754 mmHg 67%
    21:00 +22°C° 0 mm 3 mps 754 mmHg 65%
    22:00 +21°C° 0 mm 3 mps 755 mmHg 62%
    23:00 +20°C° 0 mm 3 mps 755 mmHg 56%

    23 November, Friday

    Time Temperature Precipitation Wind Pressure Humidity
    00:00 +19°C° 0 mm 3 mps 755 mmHg 50%
    01:00 +18°C° 0 mm 3 mps 755 mmHg 44%
    02:00 +18°C° 0 mm 3 mps 755 mmHg 42%
    03:00 +17°C° 0 mm 2 mps 755 mmHg 41%
    04:00 +16°C° 0 mm 2 mps 755 mmHg 40%
    05:00 +18°C° 0 mm 2 mps 756 mmHg 37%
    06:00 +19°C° 0 mm 3 mps 756 mmHg 33%
    07:00 +21°C° 0 mm 3 mps 757 mmHg 30%
    08:00 +24°C° 0 mm 3 mps 756 mmHg 26%
    09:00 +26°C° 0 mm 3 mps 756 mmHg 22%
    10:00 +29°C° 0 mm 3 mps 756 mmHg 18%
    11:00 +30°C° 0 mm 4 mps 755 mmHg 17%
    12:00 +32°C° 0 mm 4 mps 755 mmHg 16%
    13:00 +33°C° 0 mm 5 mps 754 mmHg 15%
    14:00 +33°C° 0 mm 5 mps 753 mmHg 16%
    15:00 +33°C° 0 mm 5 mps 753 mmHg 16%
    16:00 +33°C° 0 mm 6 mps 752 mmHg 17%
    17:00 +30°C° 0 mm 5 mps 753 mmHg 20%
    18:00 +28°C° 0 mm 4 mps 753 mmHg 23%
    19:00 +26°C° 0 mm 3 mps 754 mmHg 27%
    20:00 +25°C° 0 mm 3 mps 754 mmHg 29%
    21:00 +22°C° 0 mm 3 mps 754 mmHg 31%
    22:00 +21°C° 0 mm 3 mps 754 mmHg 33%
    23:00 +21°C° 0 mm 2 mps 754 mmHg 34%

    24 November, Saturday

    Time Temperature Precipitation Wind Pressure Humidity
    00:00 +20°C° 0 mm 2 mps 754 mmHg 36%
    01:00 +19°C° 0 mm 2 mps 754 mmHg 37%
    02:00 +19°C° 0 mm 2 mps 754 mmHg 39%
    03:00 +18°C° 0 mm 2 mps 754 mmHg 40%
    04:00 +18°C° 0 mm 2 mps 754 mmHg 42%
    05:00 +19°C° 0 mm 3 mps 754 mmHg 38%
    06:00 +21°C° 0 mm 3 mps 755 mmHg 34%
    07:00 +22°C° 0 mm 3 mps 755 mmHg 30%
    08:00 +26°C° 0 mm 4 mps 755 mmHg 26%
    09:00 +28°C° 0 mm 4 mps 755 mmHg 21%
    10:00 +30°C° 0 mm 5 mps 754 mmHg 17%
    11:00 +32°C° 0 mm 5 mps 753 mmHg 16%
    12:00 +34°C° 0 mm 5 mps 753 mmHg 15%
    13:00 +35°C° 0 mm 6 mps 752 mmHg 14%
    14:00 +34°C° 0 mm 6 mps 751 mmHg 15%
    15:00 +34°C° 0 mm 6 mps 751 mmHg 15%
    16:00 +34°C° 0 mm 6 mps 751 mmHg 16%
    17:00 +32°C° 0 mm 5 mps 751 mmHg 18%
    18:00 +29°C° 0 mm 4 mps 752 mmHg 21%
    19:00 +28°C° 0 mm 4 mps 752 mmHg 23%
    20:00 +27°C° 0 mm 3 mps 752 mmHg 25%
    21:00 +26°C° 0 mm 3 mps 752 mmHg 26%
    22:00 +25°C° 0 mm 3 mps 752 mmHg 27%
    23:00 +25°C° 0 mm 3 mps 752 mmHg 31%

    25 November, Sunday

    Time Temperature Precipitation Wind Pressure Humidity
    00:00 +24°C° 0 mm 2 mps 751 mmHg 34%
    01:00 +23°C° 0 mm 2 mps 751 mmHg 37%
    02:00 +23°C° 0 mm 2 mps 751 mmHg 40%
    03:00 +23°C° 0 mm 2 mps 751 mmHg 42%
    04:00 +21°C° 0 mm 2 mps 751 mmHg 45%
    05:00 +23°C° 0.2 mm 2 mps 751 mmHg 48%
    06:00 +23°C° 0.2 mm 2 mps 751 mmHg 51%
    07:00 +24°C° 0.2 mm 2 mps 751 mmHg 54%
    08:00 +26°C° 0 mm 3 mps 751 mmHg 46%
    09:00 +29°C° 0 mm 4 mps 750 mmHg 39%
    10:00 +33°C° 0 mm 5 mps 749 mmHg 31%
    11:00 +33°C° 0 mm 5 mps 748 mmHg 32%
    12:00 +33°C° 0 mm 6 mps 746 mmHg 33%
    13:00 +34°C° 0 mm 6 mps 745 mmHg 34%
    14:00 +35°C° 0 mm 6 mps 744 mmHg 29%
    15:00 +38°C° 0 mm 7 mps 743 mmHg 24%
    16:00 +39°C° 0 mm 7 mps 743 mmHg 19%
    17:00 +36°C° 0 mm 7 mps 744 mmHg 26%
    18:00 +33°C° 0 mm 7 mps 745 mmHg 34%
    19:00 +29°C° 0 mm 7 mps 745 mmHg 41%
    20:00 +27°C° 0 mm 7 mps 747 mmHg 51%
    21:00 +24°C° 0 mm 6 mps 748 mmHg 61%
    22:00 +21°C° 0 mm 5 mps 749 mmHg 71%
    23:00 +20°C° 0 mm 5 mps 750 mmHg 73%
    Show more